Tagish, Canada
Current Conditions -  °F | °C
As of 10:00 PM on Saturday 25 Oct 2014 (Local Time) from CYXY Reporting Station
Light Snow Light Snow  
Wind Chill: 23°   Ceiling: 1000
Heat Index: 28°   Visibility: 5mi
Dew Point: 27°   Wind: 5mph
Humidity: 93%   Direction: 320°NW
Pressure: 29.71"   Gusts: NA
Location:  60.3°N, 134.27°W
Report Text: CYXY 260500Z 32004KT 5SM -SN BKN010 OVC020 M02/M03 A2971 RMK SC5SC3 SLP105
Loading
Personal Weather Stations






























Interactive Weather Map
Tropical Storm Tracking
New forecast layout! Learn more

10-Day Weather Forecast

Advertisements
Track Severe Weather on mobile